Вернуться в каталог

STARLINK-35648

АктивенСвязьVLEO
NORAD 66482·PAYLOAD·🇺🇸 United States

Запущен Nov 15, 2025 с Cape Canaveral Space Force Station

Loading…

Ближайшие Пролёты (ближайшие 24 часа)

TLE

СвежийSource: CelesTrak SupGP

Эпоха: Sep 15, 2026, 02:42 UTC

1 66482C 25262AC  26258.11298611  .00028557  00000+0  10338-2 0  2586
2 66482  43.0002 306.2805 0001472 268.3469 235.2175 15.27582331    16

Отслеживайте STARLINK-35648 в реальном времени с AllMySat

Download on the App Store